Hermosillo, México

3:06 AM MST en Diciembre 17, 2017 (GMT -0700)
Gen Ignacio Pesqueira Garcia

Tiempo Historia de MMHO - Octubre, 2017

Change the Weather History Date:

Viernes, Octubre 13, 2017

  Actual Average Record
Temperature  
Temperatura media 86 ° F -  
Temperatura máxima 101 ° F 87 ° F 104 ° F (1999)
Temperatura mínima 71 ° F 59 ° F 48 ° F (2008)
Cooling Degree Days 21    
Growing Degree Days 36 (Base 50)    
Moisture  
Punto de rocío 58 ° F    
Average Humidity 35    
Maximum Humidity 47    
Minimum Humidity 21    
Precipitación  
Precipitación 0.00 pul - - ()
Presión al nivel del mar  
Presión al nivel del mar 29.88 pul    
Viento  
Velocidad del viento 2 mph ()    
Velocidad máxima del viento 12 mph    
Max Gust Speed -    
Visibilidad 9.2 Millas    
Eventos      
Averages and records for this station are not official NWS values.
T = Trace of Precipitation, MM = Missing Value Source: Averaged Metar Reports

Daily Weather History Graph

Daily Weather History Graph

Search for Another Location

Airport or City:

Trip Planner

Search our weather history database for the weather conditions in past years. The results will help you decide how hot, cold, wet, or windy it might be!

Date:

Astronomía

Oct. 13, 2017 Salida Puesta
Hora real 7:24 AM MDT 6:55 PM MDT
Crepúsculo civil 7:00 AM MDT 7:19 PM MDT
Crepúsculo náutico 6:32 AM MDT 7:47 PM MDT
Crepúsculo astronómico 6:05 AM MDT 8:14 PM MDT
Luna 1:22 AM MDT (10/13) 3:13 PM MDT (10/13)
Horas de luz 12h 19m
Horas de luz
11h 31m
Cuarto menguante, 36% of the Moon is Illuminated
Oct 13
Cuarto menguante
Oct 19
Nueva
Oct 27
Cuarto creciente
Nov 3
Luna llena
Nov 10
Cuarto menguante

Hourly Weather History & Observations

Hora (MDT) Temp. Índice de calor Punto de rocío Humedad Presión Visibilidad Wind Dir Velocidad del viento Velocidad de ráfagas Precip Eventos Condiciones
12:40 AM 80.6 ° F 80.3 ° F 53.6 ° F 39% 29.91 pul 10.0 mi Sin viento Sin viento - N/A   Despejado
1:40 AM 78.8 ° F - 53.6 ° F 42% 29.91 pul 10.0 mi Sin viento Sin viento - N/A   Despejado
2:40 AM 78.8 ° F - 53.6 ° F 42% 29.88 pul 10.0 mi Sin viento Sin viento - N/A   Despejado
3:40 AM 77.0 ° F - 53.6 ° F 44% 29.90 pul 10.0 mi Sin viento Sin viento - N/A   Despejado
4:40 AM 77.0 ° F - 53.6 ° F 44% 29.90 pul 10.0 mi Sin viento Sin viento - N/A   Despejado
5:40 AM 74 ° F - 55 ° F 41% 29.88 pul 5 mi Este 4.5 mph - -  
5:40 AM 77.0 ° F - 55.4 ° F 47% 29.89 pul 10.0 mi Sin viento Sin viento - N/A   Despejado
6:40 AM 78.8 ° F - 55.4 ° F 44% 29.92 pul 10.0 mi Este 4.6 mph - N/A   Despejado
7:44 AM 78.8 ° F - 55.4 ° F 44% 29.93 pul 10.0 mi Sin viento Sin viento - N/A   Despejado
8:40 AM 73 ° F - 57 ° F 46% 29.92 pul 7 mi Este 2.2 mph - -   Nubes dispersas
9:41 AM 87.8 ° F 86.5 ° F 57.2 ° F 35% 29.96 pul 10.0 mi Sin viento Sin viento - N/A   Despejado
10:42 AM 91.4 ° F 89.4 ° F 55.4 ° F 29% 29.96 pul 10.0 mi Sin viento Sin viento - N/A   Despejado
11:40 AM 92 ° F - 62 ° F 27% 29.92 pul 7 mi Oeste 2.2 mph - -  
11:46 AM 93.2 ° F 91.9 ° F 57.2 ° F 30% 29.94 pul 10.0 mi Sin viento Sin viento - N/A   Despejado
12:40 PM 96.8 ° F 96.2 ° F 59.0 ° F 28% 29.94 pul 10.0 mi SO 8.1 mph - N/A   Despejado
1:49 PM 98.6 ° F 98.5 ° F 59.0 ° F 27% 29.90 pul 10.0 mi SSO 6.9 mph - N/A   Despejado
2:41 PM 99 ° F - 63 ° F 21% 29.82 pul 7 mi SO 2.2 mph - -   Nubes dispersas
2:51 PM 98.6 ° F 98.5 ° F 59.0 ° F 27% 29.84 pul 10.0 mi SSO 9.2 mph - N/A   Despejado
3:46 PM 100.4 ° F 100.2 ° F 59.0 ° F 25% 29.85 pul 10.0 mi ONO 5.8 mph - N/A   Parcialmente nublado
4:52 PM 100.4 ° F 100.2 ° F 59.0 ° F 25% 29.84 pul 10.0 mi OSO 11.5 mph - N/A   Nubes dispersas
5:40 PM 98 ° F - 61 ° F 21% 29.79 pul 7 mi SSO 2.2 mph - -   Nubes dispersas
5:43 PM 98.6 ° F 98.5 ° F 59.0 ° F 27% 29.55 pul 10.0 mi OSO 8.1 mph - N/A   Nubes dispersas
6:44 PM 95.0 ° F 95.2 ° F 60.8 ° F 32% 29.84 pul 10.0 mi Oeste 8.1 mph - N/A   Parcialmente nublado
7:45 PM 91.4 ° F 91.4 ° F 60.8 ° F 36% 29.86 pul 10.0 mi Oeste 8.1 mph - N/A   Despejado
8:40 PM 90 ° F - 63 ° F 31% 29.83 pul 5 mi Oeste 6.7 mph - -   Parcialmente nublado
8:42 PM 87.8 ° F 87.6 ° F 60.8 ° F 40% 29.86 pul 10.0 mi OSO 4.6 mph - N/A   Despejado
9:41 PM 86.0 ° F 86.1 ° F 60.8 ° F 43% 29.90 pul 10.0 mi Sin viento Sin viento - N/A   Despejado
10:45 PM 86.0 ° F 86.1 ° F 60.8 ° F 43% 29.91 pul 10.0 mi Sin viento Sin viento - N/A   Despejado
11:45 PM 84.2 ° F 84.4 ° F 60.8 ° F 45% 29.91 pul 10.0 mi Sin viento Sin viento - N/A   Despejado